Location: Montebello
(37.3256°N, 122.1789°W)
Time: 04:32:52
(UTC-08:00)

OTV 5 (USA 277) - Visible Passes

Search period start: 19 November 2017 00:00
Search period end: 29 November 2017 00:00
Orbit: 404 x 417 km, 43.0° (Epoch: 07 September)

Date Brightness Start Highest point End Pass type
(mag) Time Alt. Az. Time Alt. Az. Time Alt. Az.
19 Nov ? 04:21:27 13° ENE 04:21:27 13° ENE 04:21:58 10° E visible
19 Nov ? 05:54:13 20° WNW 05:56:19 60° SSW 05:59:33 10° SE visible
20 Nov ? 05:05:42 66° ESE 05:05:42 66° ESE 05:08:34 10° ESE visible
21 Nov ? 04:17:14 11° ESE 04:17:14 11° ESE 04:17:28 10° ESE visible
21 Nov ? 05:50:01 18° WSW 05:51:19 23° SW 05:54:00 10° SSE visible
22 Nov ? 05:01:36 26° SSE 05:01:36 26° SSE 05:03:25 10° SE visible
